Renton, WA

10:28 AM PDT on March 26, 2017 (GMT -0700)
Renton Municipal

Weather History for KRNT - February, 2014

Change the Weather History Date:

Saturday, February 8, 2014

  Actual Average Record
Temperature  
Mean Temperature 36 °F -  
Max Temperature 42 °F 48 °F 60 °F (2016)
Min Temperature 30 °F 35 °F 28 °F (1997)
Degree Days  
Heating Degree Days 29    
Moisture  
Dew Point 25 °F    
Average Humidity 75    
Maximum Humidity 100    
Minimum Humidity 36    
Precipitation  
Precipitation 0.07 in - - ()
Sea Level Pressure  
Sea Level Pressure 29.93 in    
Wind  
Wind Speed 5 mph (NNE)    
Max Wind Speed 16 mph    
Max Gust Speed 26 mph    
Visibility 5 miles    
Events Fog , Snow    
Averages and records for this station are not official NWS values.
T = Trace of Precipitation, MM = Missing Value Source: NWS Daily Summary

Daily Weather History Graph

Daily Weather History Graph

Search for Another Location

Airport or City:

Trip Planner

Search our weather history database for the weather conditions in past years. The results will help you decide how hot, cold, wet, or windy it might be!

Date:

Astronomy

Feb. 08, 2014 Rise Set
Actual Time 7:25 AM PST 5:21 PM PST
Civil Twilight 6:52 AM PST 5:53 PM PST
Nautical Twilight 6:16 AM PST 6:30 PM PST
Astronomical Twilight 5:40 AM PST 7:06 PM PST
Moon 12:13 PM PST (2/8) 2:48 AM PST (2/8)
Length of Visible Light 11h 00m
Length of Day
9h 56m
Waxing Gibbous, 69% of the Moon is Illuminated
Feb 8
Waxing Gibbous
Feb 14
Full
Feb 22
Last Quarter
Mar 1
New
Mar 8
First Quarter

Hourly Weather History & Observations

Time (PST) Temp. Windchill Dew Point Humidity Pressure Visibility Wind Dir Wind Speed Gust Speed Precip Events Conditions
12:53 AM 32.0 °F 24.8 °F 18.0 °F 56% 29.87 in 10.0 mi NNW 8.1 mph - N/A   Overcast
1:53 AM 30.9 °F 23.5 °F 18.0 °F 59% 29.90 in 10.0 mi North 8.1 mph - N/A   Overcast
2:53 AM 30.9 °F - 16.0 °F 54% 29.94 in 10.0 mi Calm Calm - N/A   Overcast
3:53 AM 30.9 °F 24.3 °F 14.0 °F 50% 29.97 in 10.0 mi NNW 6.9 mph - N/A   Overcast
4:53 AM 32.0 °F - 15.1 °F 50% 30.00 in 10.0 mi Calm Calm - N/A   Overcast
5:53 AM 30.0 °F - 21.9 °F 72% 30.01 in 10.0 mi Calm Calm - 0.00 in   Overcast
6:53 AM 30.0 °F - 24.1 °F 79% 30.01 in 10.0 mi Calm Calm - N/A   Overcast
7:53 AM 30.9 °F 26.2 °F 19.0 °F 61% 30.04 in 10.0 mi East 4.6 mph - N/A   Overcast
8:53 AM 33.1 °F - 19.9 °F 59% 30.04 in 10.0 mi Calm Calm - N/A   Overcast
9:53 AM 33.1 °F - 21.0 °F 61% 30.05 in 10.0 mi Calm Calm - N/A   Clear
10:53 AM 36.0 °F 31.1 °F 24.1 °F 62% 30.04 in 10.0 mi Variable 5.8 mph - N/A   Clear
11:53 AM 36.0 °F 29.6 °F 21.9 °F 57% 30.00 in 10.0 mi NW 8.1 mph - N/A   Clear
12:53 PM 39.0 °F 36.8 °F 19.9 °F 46% 29.96 in 10.0 mi Variable 3.5 mph - N/A   Clear
1:53 PM 42.1 °F - 17.1 °F 37% 29.93 in 10.0 mi Calm Calm - N/A   Clear
2:53 PM 41.0 °F 39.0 °F 16.0 °F 36% 29.90 in 10.0 mi SE 3.5 mph - N/A   Clear
3:53 PM 39.9 °F 35.8 °F 15.1 °F 36% 29.87 in 10.0 mi Variable 5.8 mph - N/A   Partly Cloudy
4:53 PM 37.9 °F 30.9 °F 15.1 °F 39% 29.89 in 10.0 mi East 10.4 mph 17.3 mph N/A   Overcast
5:53 PM 35.1 °F 25.2 °F 21.9 °F 59% 29.90 in 5.0 mi ESE 16.1 mph 26.5 mph 0.00 in Snow Light Snow
6:00 PM 34.0 °F 25.5 °F 26.1 °F 73% 29.89 in 1.8 mi East 11.5 mph 26.5 mph 0.00 in Snow Light Snow
6:53 PM 30.9 °F 26.2 °F 30.0 °F 96% 29.89 in 1.2 mi WNW 4.6 mph - 0.00 in Snow Light Snow
7:49 PM 32.0 °F 24.8 °F 32.0 °F 100% 29.87 in 1.2 mi WNW 8.1 mph - 0.00 in Snow Light Snow
7:53 PM 33.1 °F 26.1 °F 32.0 °F 96% 29.89 in 1.2 mi NNW 8.1 mph - 0.00 in Snow Light Snow
8:00 PM 33.1 °F 26.9 °F 32.0 °F 96% 29.88 in 4.0 mi NNW 6.9 mph - 0.00 in Snow Light Snow
8:09 PM 33.1 °F 27.7 °F 32.0 °F 96% 29.88 in 1.8 mi NNW 5.8 mph - 0.00 in Snow Light Snow
8:53 PM 32.0 °F - 30.0 °F 92% 29.89 in 1.2 mi Calm Calm - 0.02 in Snow Light Snow
9:08 PM 32.0 °F - 30.0 °F 92% 29.88 in 0.8 mi Calm Calm - 0.00 in Snow Light Snow
9:20 PM 32.0 °F 24.8 °F 32.0 °F 100% 29.89 in 1.0 mi NNW 8.1 mph - 0.00 in Snow Light Snow
9:31 PM 32.0 °F 25.6 °F 32.0 °F 100% 29.90 in 1.0 mi North 6.9 mph - 0.01 in Snow Light Snow
9:38 PM 32.0 °F 27.5 °F 32.0 °F 100% 29.91 in 1.0 mi Variable 4.6 mph - 0.01 in Snow Light Snow
9:53 PM 32.0 °F - 32.0 °F 100% 29.94 in 0.8 mi Calm Calm - 0.02 in Snow Light Snow
10:06 PM 32.0 °F 25.6 °F 30.9 °F 96% 29.93 in 0.8 mi Variable 6.9 mph - 0.00 in Snow Light Snow
10:16 PM 30.9 °F 24.3 °F 30.0 °F 96% 29.92 in 0.5 mi ESE 6.9 mph - 0.01 in Fog , Snow Snow
10:36 PM 30.9 °F 24.3 °F 28.9 °F 92% 29.92 in 0.8 mi East 6.9 mph - 0.02 in Snow Light Snow
10:46 PM 30.0 °F 23.2 °F 28.9 °F 96% 29.92 in 1.0 mi East 6.9 mph - 0.02 in Snow Light Snow
10:53 PM 30.0 °F 26.5 °F 28.0 °F 92% 29.93 in 1.0 mi East 3.5 mph - 0.03 in Snow Light Snow
11:20 PM 30.9 °F 27.5 °F 28.9 °F 92% 29.94 in 1.8 mi Variable 3.5 mph - 0.00 in Snow Light Snow
11:37 PM 30.9 °F - 28.9 °F 92% 29.95 in 2.5 mi Calm Calm - 0.00 in Snow Light Snow
11:53 PM 30.9 °F 26.2 °F 28.9 °F 92% 29.97 in 5.0 mi NW 4.6 mph - 0.00 in Snow Light Snow